Regional Weather Roundup
Issued by NWS State College, PA

Home | Current Version | Previous Version | Graphics & Text | Print | Product List | Glossary On
Versions: 1 2 3 4 5 6 7 8 9 10 11 12 13 14 15 16 17 18 19 20 21 22 23 24 25 26 27 28 29 30 31 32 33 34 35 36 37 38 39 40 41 42 43 44 45 46 47 48 49 50
000
ASUS41 KCTP 200603
RWRCTP

REGIONAL WEATHER ROUNDUP
NATIONAL WEATHER SERVICE STATE COLLEGE PA
200 AM EDT WED AUG 20 2014

Note: "fair" indicates few or no clouds below 12,000 feet with no
significant weather and/or obstructions to visibility.

* = STATION THAT DOES NOT REPORT PRECIPITATION /E.G. RAIN...SNOW...ETC/
    THUNDER OR FOG.

PAZ002>004-007>009-013>016-020>023-029>032-200700-
WESTERN PENNSYLVANIA

CITY           SKY/WX    TMP DP  RH WIND       PRES   REMARKS
ERIE           LGT RAIN  67  62  84 S15       29.84F
MEADVILLE      LGT RAIN  65  62  90 SE5       29.92F
FRANKLIN*      MOCLDY    63  59  88 SW3       29.97F
NEW CASTLE     NOT AVBL
BEAVER COUNTY  NOT AVBL
BUTLER*        MOCLDY    64  61  88 N6        29.97R
PITTSBURGH INT LGT RAIN  68  64  87 N9        29.93S
PITTSBURGH     CLOUDY    71  62  73 N12G24    29.92R
INDIANA*       CLOUDY    70  66  88 CALM      29.95F
LATROBE        CLEAR     66  66 100 CALM      29.92S FOG
WASHINGTON CO* MOCLDY    66  66 100 N9G18     29.93R
$$

PAZ004>006-010>012-017>019-024>028-033>037-041-042-045-046-049>053-200700-
CENTRAL PENNSYLVANIA

CITY           SKY/WX    TMP DP  RH WIND       PRES   REMARKS
BRADFORD       MOCLDY    64  62  93 CALM      29.95S FOG
DUBOIS         FAIR      67  65  93 SE3       29.93S
CLEARFIELD     FOG       61  61 100 N3        29.94F VSB 1/4
JOHNSTOWN      FAIR      66  64  93 S5        29.97S
ALTOONA        FAIR      65  65 100 CALM      29.95F FOG
STATE COLLEGE  FAIR      64  63  96 CALM      29.94S FOG
WILLIAMSPORT   CLOUDY    66  62  87 CALM      29.91S
SELINSGROVE    CLOUDY    65  64  97 CALM      29.93S FOG
FT INDIANTOWN  MOCLDY    67  67 100 CALM      29.94R
CAPITAL CITY   CLOUDY    73  64  73 E3        29.92S
HARRISBURG     MOCLDY    74  65  73 S3        29.92R
YORK           MOCLDY    71  64  78 CALM      29.93S
$$

PAZ038>040-043-044-047-048-054-055-060>062-067>071-200700-
EASTERN PENNSYLVANIA

CITY           SKY/WX    TMP DP  RH WIND       PRES   REMARKS
SCRANTON       FAIR      70  61  73 CALM      29.94S
MOUNT POCONO   FAIR      64  60  87 CALM      29.98F
ALLENTOWN      CLOUDY    72  63  73 CALM      29.94S
QUAKERTOWN*    MOCLDY    70  64  83 MISG      29.95F
READING        FAIR      71  61  70 CALM      29.93S
LANCASTER      MOCLDY    69  61  75 N3        29.94R
COATESVILLE    MOCLDY    68  68 100 CALM      29.95F
POTTSTOWN      CLOUDY    71  64  78 CALM      29.95F
BLUE BELL      MOCLDY    72  63  73 CALM      29.93S
DOYLESTOWN     CLOUDY    68  63  84 CALM      29.94S
WILLOW GROVE   NOT AVBL
NORTH PHILA    CLOUDY    71  62  73 CALM      29.96R
PHILADELPHIA   CLOUDY    73  64  73 SW3       29.94S
$$


USA.gov is the U.S. government's official web portal to all federal, state and local government web resources and services.